Regional Weather Roundup
Issued by NWS Sioux Falls, SD

Home | Current Version | Previous Version | Text Only | Print | Product List | Glossary On
Versions: 1 2 3 4 5 6 7 8 9 10 11 12 13 14 15 16 17 18 19 20 21 22 23 24 25 26 27 28 29 30 31 32 33 34 35 36 37 38 39 40 41 42 43 44 45 46 47 48 49 50
000
ASUS43 KFSD 261602
RWRFSD

WEATHER ROUNDUP FOR SE SOUTH DAKOTA/SW MINNESOTA/NW IOWA
NATIONAL WEATHER SERVICE SIOUX FALLS SD
1100 AM CDT SUN APR 26 2015

NOTE: "FAIR" INDICATES FEW OR NO CLOUDS BELOW 12,000 FEET WITH NO
SIGNIFICANT WEATHER AND OR OBSTRUCTIONS TO VISIBILITY.


SDZ038>040-050-052>070-261700-
SOUTHEAST SOUTH DAKOTA

CITY           SKY/WX    TMP DP  RH WIND       PRES   REMARKS
BROOKINGS      SUNNY     55  37  50 SE7       30.09R
CHAMBERLAIN    NOT AVBL
HURON          SUNNY     57  34  41 SE12      30.07S
MADISON        FAIR      54  37  54 SE9       30.09R
MITCHELL       SUNNY     56  37  49 SE12G21   30.08R
SIOUX FALLS    MOSUNNY   56  35  45 SE8       30.08S
WINNER         PTSUNNY   53  39  59 S14       30.03S
YANKTON        SUNNY     55  34  44 E15       30.06S
$$

MNZ071-072-080-081-089-090-097-098-261700-
SOUTHWEST MINNESOTA

CITY           SKY/WX    TMP DP  RH WIND       PRES   REMARKS
FAIRMONT       SUNNY     54  34  47 N6        30.08S
JACKSON        SUNNY     55  30  38 N7        30.09R
LUVERNE        SUNNY     57  32  38 NE7       30.08S
MARSHALL       SUNNY     50  28  43 E3        30.10S
MONTEVIDEO     SUNNY     55  30  38 E7        30.11F
REDWOOD FALLS  SUNNY     55  28  35 VRB5      30.10S
TRACY          SUNNY     51  31  46 N7        30.10S
WORTHINGTON    SUNNY     54  36  50 N7        30.08S
$$

IAZ001>003-012>014-020>022-031-032-NEZ013-014-SDZ071-261700-
NORTHWEST IOWA

CITY           SKY/WX    TMP DP  RH WIND       PRES   REMARKS
DENISON        SUNNY     52  36  54 E12       30.06R
ESTHERVILLE    SUNNY     55  34  45 N6        30.08R
LE MARS        SUNNY     57  36  44 NE8G15    30.08S
ORANGE CITY    SUNNY     55  34  44 E8        30.08R
SHELDON        SUNNY     57  32  38 NE7       30.07R
SIOUX CITY     SUNNY     56  35  45 E12       30.08S
SPENCER        SUNNY     58  32  37 NE7       30.08R
STORM LAKE     SUNNY     54  34  47 NE7G14    30.08S
$$

ABBREVIATIONS USED IN REMARKS
   TC - TEMPERATURE IN CELSIUS
  WCI - WIND CHILL INDEX
   HX - HEAT INDEX
  VSB - VISIBILITY




USA.gov is the U.S. government's official web portal to all federal, state and local government web resources and services.